Ozark, AL

3:22 AM CDT on July 26, 2017 (GMT -0500)
Cairns Army Air Field

Weather History for KOZR - January, 2014

Change the Weather History Date:

Monday, January 13, 2014

  Actual Average Record
Temperature  
Mean Temperature 49 °F -  
Max Temperature 60 °F 58 °F 78 °F (2013)
Min Temperature 38 °F 36 °F 19 °F (2011)
Degree Days  
Heating Degree Days 16    
Moisture  
Dew Point 51 °F    
Average Humidity 91    
Maximum Humidity 100    
Minimum Humidity 57    
Precipitation  
Precipitation 0.80 in - - ()
Sea Level Pressure  
Sea Level Pressure 29.98 in    
Wind  
Wind Speed 4 mph (SSE)    
Max Wind Speed 10 mph    
Max Gust Speed 17 mph    
Visibility 7 miles    
Events Fog , Rain    
Averages and records for this station are not official NWS values.
T = Trace of Precipitation, MM = Missing Value Source: NWS Daily Summary

Daily Weather History Graph

Daily Weather History Graph

Search for Another Location

Airport or City:

Trip Planner

Search our weather history database for the weather conditions in past years. The results will help you decide how hot, cold, wet, or windy it might be!

Date:

Astronomy

Jan. 13, 2014 Rise Set
Actual Time 6:42 AM CST 5:01 PM CST
Civil Twilight 6:16 AM CST 5:27 PM CST
Nautical Twilight 5:46 AM CST 5:57 PM CST
Astronomical Twilight 5:17 AM CST 6:26 PM CST
Moon 3:14 PM CST (1/13) 4:31 AM CST (1/13)
Length of Visible Light 11h 11m
Length of Day
10h 18m
Waxing Gibbous, 95% of the Moon is Illuminated
Jan 13
Waxing Gibbous
Jan 15
Full
Jan 23
Last Quarter
Jan 30
New
Feb 6
First Quarter

Hourly Weather History & Observations

Time (CST) Temp. Windchill Dew Point Humidity Pressure Visibility Wind Dir Wind Speed Gust Speed Precip Events Conditions
12:58 AM 40.6 °F - 37.9 °F 90% 30.17 in 10.0 mi ESE 2.3 mph - N/A   Mostly Cloudy
1:58 AM 43.0 °F - 39.6 °F 88% 30.16 in 10.0 mi Calm Calm - N/A   Overcast
2:58 AM 40.1 °F 36.9 °F 38.3 °F 93% 30.15 in 10.0 mi NE 4.6 mph - N/A   Clear
3:58 AM 38.8 °F 33.2 °F 36.9 °F 93% 30.12 in 10.0 mi ENE 8.1 mph - N/A   Scattered Clouds
4:58 AM 41.0 °F 38.0 °F 37.9 °F 89% 30.10 in 10.0 mi East 4.6 mph - N/A   Mostly Cloudy
5:58 AM 40.5 °F - 36.7 °F 86% 30.11 in 10.0 mi East 2.3 mph - N/A   Mostly Cloudy
6:58 AM 40.6 °F - 37.6 °F 89% 30.13 in 10.0 mi NE 2.3 mph - N/A   Scattered Clouds
7:58 AM 42.6 °F 39.9 °F 38.5 °F 85% 30.14 in 10.0 mi NE 4.6 mph - N/A   Clear
8:58 AM 48.0 °F - 40.3 °F 75% 30.15 in 10.0 mi ESE 3.5 mph - N/A   Clear
9:58 AM 56.3 °F - 41.9 °F 59% 30.15 in 10.0 mi SSE 8.1 mph - N/A   Clear
10:58 AM 60.3 °F - 44.8 °F 57% 30.11 in 10.0 mi SSW 5.8 mph - N/A   Scattered Clouds
11:58 AM 60.4 °F - 46.4 °F 60% 30.07 in 10.0 mi South 9.2 mph - N/A   Mostly Cloudy
12:55 PM 60.8 °F - 48.2 °F 63% 30.02 in 10.0 mi South 8.1 mph - N/A   Light Drizzle
12:58 PM 60.1 °F - 47.7 °F 64% 30.02 in 10.0 mi South 5.8 mph - 0.00 in Rain Light Rain
1:52 PM 57.2 °F - 53.6 °F 88% 29.97 in 10.0 mi SE 3.5 mph - N/A   Clear
1:58 PM 57.2 °F - 52.7 °F 85% 29.99 in 10.0 mi Calm Calm - 0.01 in   Partly Cloudy
2:13 PM 57.2 °F - 53.6 °F 88% 29.96 in 10.0 mi Variable 1.2 mph - N/A Rain Light Rain
2:23 PM 57.2 °F - 51.8 °F 82% 29.96 in 1.8 mi Variable 2.3 mph - N/A Rain Heavy Rain
2:33 PM 55.4 °F - 51.8 °F 88% 29.99 in 3.0 mi South 2.3 mph - N/A Rain Light Rain
2:38 PM 55.4 °F - 53.6 °F 94% 29.98 in 2.5 mi WSW 1.2 mph - N/A Rain Heavy Rain
2:43 PM 55.4 °F - 53.6 °F 94% 29.97 in 1.8 mi SE 6.9 mph - N/A Rain Heavy Rain
2:48 PM 55.4 °F - 53.6 °F 94% 29.98 in 2.0 mi Variable 4.6 mph - N/A Rain Heavy Rain
2:58 PM 55.0 °F - 53.6 °F 95% 29.99 in 3.0 mi ESE 3.5 mph - 0.25 in Rain Rain
3:13 PM 55.4 °F - 53.6 °F 94% 29.96 in 10.0 mi Variable 3.5 mph - N/A Rain Light Rain
3:43 PM 55.4 °F - 53.6 °F 94% 29.99 in 2.5 mi North - - N/A Rain Heavy Rain
3:48 PM 55.4 °F - 53.6 °F 94% 30.00 in 3.0 mi WSW 1.2 mph - N/A Rain Rain
3:58 PM 54.9 °F - 53.8 °F 96% 30.00 in 5.0 mi East 2.3 mph - 0.13 in Rain Light Rain
4:58 PM 54.7 °F - 53.8 °F 97% 29.98 in 6.0 mi SE 8.1 mph - 0.14 in Rain Rain
5:58 PM 54.9 °F - 54.0 °F 97% 29.92 in 9.0 mi SE 10.4 mph - 0.14 in Rain Light Rain
6:12 PM 55.4 °F - 53.6 °F 94% 29.90 in 10.0 mi SE 8.1 mph - N/A Rain Light Rain
6:22 PM 55.4 °F - 55.4 °F 100% 29.91 in 10.0 mi SE 9.2 mph 16.1 mph N/A Rain Light Rain
6:52 PM 55.4 °F - 55.4 °F 100% 29.94 in 8.0 mi SE 9.2 mph - N/A Rain Light Rain
6:58 PM 55.8 °F - 54.7 °F 96% 29.94 in 6.0 mi SE 10.4 mph - 0.05 in Rain Light Rain
7:23 PM 55.4 °F - 55.4 °F 100% 29.93 in 10.0 mi SE 8.1 mph 17.3 mph N/A Rain Light Rain
7:48 PM 55.4 °F - 55.4 °F 100% 29.91 in 9.0 mi ESE 5.8 mph - N/A Rain Light Rain
7:58 PM 55.9 °F - 55.0 °F 97% 29.92 in 10.0 mi ESE 5.8 mph - 0.08 in   Light Drizzle
8:02 PM 55.4 °F - 55.4 °F 100% 29.91 in 10.0 mi ESE 4.6 mph - N/A   Overcast
8:07 PM 55.4 °F - 55.4 °F 100% 29.91 in 10.0 mi SE 5.8 mph - N/A   Overcast
8:58 PM 55.9 °F - 55.4 °F 98% 29.92 in 10.0 mi South 1.2 mph - 0.00 in   Overcast
9:13 PM 55.4 °F - 55.4 °F 100% 29.91 in 10.0 mi East 1.2 mph - N/A   Overcast
9:19 PM 55.4 °F - 55.4 °F 100% 29.92 in 10.0 mi SSW 2.3 mph - N/A   Overcast
9:34 PM 55.4 °F - 55.4 °F 100% 29.92 in 10.0 mi SSW 4.6 mph - N/A   Overcast
9:43 PM 55.4 °F - 55.4 °F 100% 29.92 in 10.0 mi SW 3.5 mph - N/A   Overcast
9:58 PM 55.9 °F - 55.6 °F 99% 29.93 in 10.0 mi WSW 4.6 mph - N/A   Overcast
10:13 PM 55.4 °F - 55.4 °F 100% 29.93 in 10.0 mi WSW 4.6 mph - N/A   Overcast
10:23 PM 57.2 °F - 55.4 °F 94% 29.92 in 8.0 mi SW 4.6 mph - N/A   Overcast
10:38 PM 57.2 °F - 55.4 °F 94% 29.90 in 5.0 mi South 5.8 mph - N/A   Scattered Clouds
10:53 PM 57.2 °F - 57.2 °F 100% 29.90 in 1.8 mi South 6.9 mph - N/A   Clear
10:58 PM 57.2 °F - 57.2 °F 100% 29.91 in 1.0 mi South 6.9 mph - N/A   Clear
11:03 PM 57.2 °F - 57.2 °F 100% 29.90 in 0.8 mi South 6.9 mph - N/A   Clear
11:08 PM 57.2 °F - 57.2 °F 100% 29.90 in 0.5 mi South 6.9 mph - N/A Fog Fog
11:18 PM 57.2 °F - 57.2 °F 100% 29.89 in 0.2 mi South 6.9 mph - N/A Fog Fog
11:58 PM 56.8 °F - 56.8 °F 100% 29.88 in 0.2 mi South 5.8 mph - N/A Fog Fog